Regional Weather Roundup
Issued by NWS

Home | Current Version | Previous Version | Text Only | Print | Product List | Glossary On
Versions: 1 2 3 4 5 6 7 8 9 10 11 12 13 14 15 16 17 18 19 20 21 22 23 24 25 26 27 28 29 30 31 32 33 34 35 36 37 38 39 40 41 42 43 44 45 46 47 48 49 50
000
ASUS43 KTOP 021608
RWRKS

WEATHER ROUNDUP FOR KANSAS
NATIONAL WEATHER SERVICE GOODLAND KS
1000 AM CST FRI DEC 02 2016

NOTE:  "FAIR" INDICATES FEW OR NO CLOUDS BELOW 12,000 FEET WITH NO
SIGNIFICANT WEATHER AND/OR OBSTRUCTIONS TO VISIBILITY.

KSZ001>006-013>018-027>032-041>047-021700-
NORTHWEST KANSAS

CITY           SKY/WX    TMP DP  RH WIND       PRES   REMARKS
GOODLAND       MOSUNNY   29  16  58 W6        30.21R
HAYS           SUNNY     31  21  66 CALM      30.27R
HILL CITY      SUNNY     30  19  63 W6        30.27R
RUSSELL        SUNNY     32  21  64 NW7       30.26R
$$

KSZ061>065-074>080-084>089-021700-
SOUTHWEST KANSAS

CITY           SKY/WX    TMP DP  RH WIND       PRES   REMARKS
DODGE CITY     CLOUDY    39  15  37 N5        30.22R
ELKHART          N/A     31  12  45 NW2         N/A
GARDEN CITY    CLOUDY    33  14  45 N3        30.21R
GREAT BEND     SUNNY     34  19  54 N8        30.25S
LIBERAL        MOSUNNY   34  16  47 N6        30.22R
PRATT          MOSUNNY   32  19  59 N3        30.24R
$$

KSZ066>073-081>083-090>101-021700-
SOUTHEAST KANSAS

CITY           SKY/WX    TMP DP  RH WIND       PRES   REMARKS
CHANUTE        PTSUNNY   49  25  39 E9        30.23R
COFFEYVILLE    MOSUNNY   46  30  53 E9        30.24R
HUTCHINSON     SUNNY     41  24  51 N6        30.26R
MEDICINE LODGE   N/A     35  23  61 N6        30.24R
NEWTON         SUNNY     43  26  51 NE5       30.25R
PARSONS        SUNNY     50  27  40 VRB5      30.24R
WICHITA INTL   MOSUNNY   43  28  55 N6        30.24R
WICHITA JABRA  SUNNY     42  28  57 NE7       30.23R
WICHITA MCCONL SUNNY     44  26  48 NE9       30.23R
WINFIELD       CLOUDY    45  27  49 E10       30.23R
$$

KSZ007>012-019>026-033>040-048>060-102>105-021700-
NORTHEAST KANSAS

CITY           SKY/WX    TMP DP  RH WIND       PRES   REMARKS
CONCORDIA      SUNNY     32  26  78 E6        30.27R
EMPORIA        SUNNY     39  28  64 N5        30.25R
LAWRENCE       SUNNY     33  30  88 CALM      30.29R
MANHATTAN      SUNNY     32  27  81 NE3       30.27R
MARYSVILLE     SUNNY     32  30  93 CALM      30.28R
OLATHE IND     SUNNY     41  28  60 VRB3      30.27R
OLATHE EXE     SUNNY     41  27  57 E3        30.27R
SALINA         SUNNY     37  26  64 CALM      30.29R
TOPEKA BILLARD SUNNY     33  28  81 CALM      30.28R
TOPEKA FORBES  SUNNY     38  30  73 CALM      30.27R
$$



USA.gov is the U.S. government's official web portal to all federal, state and local government web resources and services.